TimeEST,TemperatureF,Dew PointF,Humidity,Sea Level PressureIn,VisibilityMPH,Wind Direction,Wind SpeedMPH,Gust SpeedMPH,PrecipitationIn,Events,Conditions,WindDirDegrees,DateUTC
12:53 AM,60.1,39.9,47,30.12,10.0,NW,13.8,28.8,N/A,,Overcast,320,2013-02-17 05:53:00
1:53 AM,60.1,41.0,49,30.12,10.0,NNW,13.8,25.3,N/A,,Mostly Cloudy,330,2013-02-17 06:53:00
2:53 AM,57.0,39.0,51,30.12,10.0,North,11.5,18.4,N/A,,Overcast,360,2013-02-17 07:53:00
3:53 AM,52.0,32.0,47,30.14,10.0,NNE,17.3,26.5,N/A,,Mostly Cloudy,20,2013-02-17 08:53:00
4:53 AM,48.9,28.0,44,30.17,10.0,NNE,10.4,27.6,N/A,,Clear,20,2013-02-17 09:53:00
5:53 AM,46.9,23.0,39,30.19,10.0,NNE,10.4,16.1,N/A,,Clear,20,2013-02-17 10:53:00
6:53 AM,45.0,19.0,36,30.22,10.0,NNE,10.4,-,N/A,,Clear,20,2013-02-17 11:53:00
7:53 AM,45.0,19.0,36,30.25,10.0,NNE,12.7,-,N/A,,Clear,20,2013-02-17 12:53:00
8:53 AM,48.0,18.0,30,30.27,10.0,NNE,15.0,21.9,N/A,,Clear,30,2013-02-17 13:53:00
9:53 AM,50.0,19.9,31,30.29,10.0,NNE,13.8,23.0,N/A,,Clear,30,2013-02-17 14:53:00
10:53 AM,52.0,24.1,34,30.31,10.0,NNE,12.7,21.9,N/A,,Clear,20,2013-02-17 15:53:00
11:53 AM,54.0,26.1,34,30.31,10.0,North,11.5,21.9,N/A,,Clear,350,2013-02-17 16:53:00
12:53 PM,55.9,25.0,30,30.28,10.0,NNE,11.5,23.0,N/A,,Clear,30,2013-02-17 17:53:00
1:53 PM,57.9,25.0,28,30.27,10.0,North,10.4,-,N/A,,Clear,350,2013-02-17 18:53:00
2:53 PM,57.9,21.9,25,30.26,10.0,North,11.5,-,N/A,,Clear,10,2013-02-17 19:53:00
3:53 PM,59.0,24.1,26,30.25,10.0,NNE,6.9,-,N/A,,Clear,20,2013-02-17 20:53:00
4:53 PM,59.0,21.9,24,30.26,10.0,NNE,6.9,-,N/A,,Clear,30,2013-02-17 21:53:00
5:53 PM,57.0,23.0,27,30.26,10.0,North,5.8,-,N/A,,Clear,10,2013-02-17 22:53:00
6:53 PM,54.0,25.0,33,30.27,10.0,NNE,3.5,-,N/A,,Clear,20,2013-02-17 23:53:00
7:53 PM,51.1,28.9,43,30.29,10.0,NE,3.5,-,N/A,,Clear,40,2013-02-18 00:53:00
8:53 PM,48.9,28.9,46,30.30,10.0,ENE,3.5,-,N/A,,Clear,60,2013-02-18 01:53:00
9:53 PM,46.0,28.9,51,30.32,10.0,NE,3.5,-,N/A,,Clear,50,2013-02-18 02:53:00
10:53 PM,45.0,30.9,58,30.33,10.0,NE,3.5,-,N/A,,Clear,40,2013-02-18 03:53:00